Index of /20260501/WXO-DD/model_rdps/10km/00/054
Name Last modified Size Description
Parent Directory -
20260501T00Z_MSC_RDPS_AbsoluteVorticity_IsbL-0250_RLatLon0.09_PT054H.grib2 2026-05-01 02:59 609K
20260501T00Z_MSC_RDPS_AbsoluteVorticity_IsbL-0500_RLatLon0.09_PT054H.grib2 2026-05-01 02:59 563K
20260501T00Z_MSC_RDPS_AbsoluteVorticity_IsbL-0700_RLatLon0.09_PT054H.grib2 2026-05-01 02:59 619K
20260501T00Z_MSC_RDPS_AbsoluteVorticity_IsbL-0850_RLatLon0.09_PT054H.grib2 2026-05-01 02:59 779K
20260501T00Z_MSC_RDPS_AirTemp_AGL-120m_RLatLon0.09_PT054H.grib2 2026-05-01 02:59 371K
20260501T00Z_MSC_RDPS_AirTemp_AGL-2m_RLatLon0.09_PT054H.grib2 2026-05-01 02:59 628K
20260501T00Z_MSC_RDPS_AirTemp_AGL-40m_RLatLon0.09_PT054H.grib2 2026-05-01 02:59 389K
20260501T00Z_MSC_RDPS_AirTemp_AGL-80m_RLatLon0.09_PT054H.grib2 2026-05-01 02:59 379K
20260501T00Z_MSC_RDPS_AirTemp_IsbL-0001_RLatLon0.09_PT054H.grib2 2026-05-01 02:59 295K
20260501T00Z_MSC_RDPS_AirTemp_IsbL-0005_RLatLon0.09_PT054H.grib2 2026-05-01 02:59 286K
20260501T00Z_MSC_RDPS_AirTemp_IsbL-0010_RLatLon0.09_PT054H.grib2 2026-05-01 02:59 295K
20260501T00Z_MSC_RDPS_AirTemp_IsbL-0020_RLatLon0.09_PT054H.grib2 2026-05-01 02:59 407K
20260501T00Z_MSC_RDPS_AirTemp_IsbL-0030_RLatLon0.09_PT054H.grib2 2026-05-01 02:59 336K
20260501T00Z_MSC_RDPS_AirTemp_IsbL-0050_RLatLon0.09_PT054H.grib2 2026-05-01 02:59 315K
20260501T00Z_MSC_RDPS_AirTemp_IsbL-0100_RLatLon0.09_PT054H.grib2 2026-05-01 02:59 388K
20260501T00Z_MSC_RDPS_AirTemp_IsbL-0150_RLatLon0.09_PT054H.grib2 2026-05-01 02:59 418K
20260501T00Z_MSC_RDPS_AirTemp_IsbL-0175_RLatLon0.09_PT054H.grib2 2026-05-01 02:59 407K
20260501T00Z_MSC_RDPS_AirTemp_IsbL-0200_RLatLon0.09_PT054H.grib2 2026-05-01 02:59 412K
20260501T00Z_MSC_RDPS_AirTemp_IsbL-0225_RLatLon0.09_PT054H.grib2 2026-05-01 02:59 415K
20260501T00Z_MSC_RDPS_AirTemp_IsbL-0250_RLatLon0.09_PT054H.grib2 2026-05-01 02:59 420K
20260501T00Z_MSC_RDPS_AirTemp_IsbL-0275_RLatLon0.09_PT054H.grib2 2026-05-01 02:59 402K
20260501T00Z_MSC_RDPS_AirTemp_IsbL-0300_RLatLon0.09_PT054H.grib2 2026-05-01 02:59 435K
20260501T00Z_MSC_RDPS_AirTemp_IsbL-0350_RLatLon0.09_PT054H.grib2 2026-05-01 02:59 423K
20260501T00Z_MSC_RDPS_AirTemp_IsbL-0400_RLatLon0.09_PT054H.grib2 2026-05-01 02:59 424K
20260501T00Z_MSC_RDPS_AirTemp_IsbL-0450_RLatLon0.09_PT054H.grib2 2026-05-01 02:59 399K
20260501T00Z_MSC_RDPS_AirTemp_IsbL-0500_RLatLon0.09_PT054H.grib2 2026-05-01 02:59 410K
20260501T00Z_MSC_RDPS_AirTemp_IsbL-0550_RLatLon0.09_PT054H.grib2 2026-05-01 02:59 427K
20260501T00Z_MSC_RDPS_AirTemp_IsbL-0600_RLatLon0.09_PT054H.grib2 2026-05-01 02:59 441K
20260501T00Z_MSC_RDPS_AirTemp_IsbL-0650_RLatLon0.09_PT054H.grib2 2026-05-01 02:59 454K
20260501T00Z_MSC_RDPS_AirTemp_IsbL-0700_RLatLon0.09_PT054H.grib2 2026-05-01 02:59 480K
20260501T00Z_MSC_RDPS_AirTemp_IsbL-0750_RLatLon0.09_PT054H.grib2 2026-05-01 02:59 404K
20260501T00Z_MSC_RDPS_AirTemp_IsbL-0800_RLatLon0.09_PT054H.grib2 2026-05-01 02:59 448K
20260501T00Z_MSC_RDPS_AirTemp_IsbL-0850_RLatLon0.09_PT054H.grib2 2026-05-01 02:59 497K
20260501T00Z_MSC_RDPS_AirTemp_IsbL-0875_RLatLon0.09_PT054H.grib2 2026-05-01 02:59 519K
20260501T00Z_MSC_RDPS_AirTemp_IsbL-0900_RLatLon0.09_PT054H.grib2 2026-05-01 02:59 530K
20260501T00Z_MSC_RDPS_AirTemp_IsbL-0925_RLatLon0.09_PT054H.grib2 2026-05-01 02:59 522K
20260501T00Z_MSC_RDPS_AirTemp_IsbL-0950_RLatLon0.09_PT054H.grib2 2026-05-01 02:59 522K
20260501T00Z_MSC_RDPS_AirTemp_IsbL-0970_RLatLon0.09_PT054H.grib2 2026-05-01 02:59 514K
20260501T00Z_MSC_RDPS_AirTemp_IsbL-0985_RLatLon0.09_PT054H.grib2 2026-05-01 02:59 503K
20260501T00Z_MSC_RDPS_AirTemp_IsbL-1000_RLatLon0.09_PT054H.grib2 2026-05-01 02:59 484K
20260501T00Z_MSC_RDPS_AirTemp_IsbL-1015_RLatLon0.09_PT054H.grib2 2026-05-01 02:59 483K
20260501T00Z_MSC_RDPS_Albedo_Sfc_RLatLon0.09_PT054H.grib2 2026-05-01 02:59 157K
20260501T00Z_MSC_RDPS_CAPE_Sfc_RLatLon0.09_PT054H.grib2 2026-05-01 02:59 1.6M
20260501T00Z_MSC_RDPS_CIN_Sfc_RLatLon0.09_PT054H.grib2 2026-05-01 02:59 1.1M
20260501T00Z_MSC_RDPS_CloudWater_EAtm_RLatLon0.09_PT054H.grib2 2026-05-01 02:59 220K
20260501T00Z_MSC_RDPS_ConvectivePrecip-Accum_Sfc_RLatLon0.09_PT054H.grib2 2026-05-01 02:59 1.1M
20260501T00Z_MSC_RDPS_DewPointDepression_AGL-2m_RLatLon0.09_PT054H.grib2 2026-05-01 02:59 397K
20260501T00Z_MSC_RDPS_DewPointDepression_IsbL-0001_RLatLon0.09_PT054H.grib2 2026-05-01 02:59 193
20260501T00Z_MSC_RDPS_DewPointDepression_IsbL-0005_RLatLon0.09_PT054H.grib2 2026-05-01 02:59 193
20260501T00Z_MSC_RDPS_DewPointDepression_IsbL-0010_RLatLon0.09_PT054H.grib2 2026-05-01 02:59 193
20260501T00Z_MSC_RDPS_DewPointDepression_IsbL-0020_RLatLon0.09_PT054H.grib2 2026-05-01 02:59 193
20260501T00Z_MSC_RDPS_DewPointDepression_IsbL-0030_RLatLon0.09_PT054H.grib2 2026-05-01 02:59 193
20260501T00Z_MSC_RDPS_DewPointDepression_IsbL-0050_RLatLon0.09_PT054H.grib2 2026-05-01 02:59 104K
20260501T00Z_MSC_RDPS_DewPointDepression_IsbL-0100_RLatLon0.09_PT054H.grib2 2026-05-01 02:59 120K
20260501T00Z_MSC_RDPS_DewPointDepression_IsbL-0150_RLatLon0.09_PT054H.grib2 2026-05-01 02:59 149K
20260501T00Z_MSC_RDPS_DewPointDepression_IsbL-0175_RLatLon0.09_PT054H.grib2 2026-05-01 02:59 185K
20260501T00Z_MSC_RDPS_DewPointDepression_IsbL-0200_RLatLon0.09_PT054H.grib2 2026-05-01 02:59 218K
20260501T00Z_MSC_RDPS_DewPointDepression_IsbL-0225_RLatLon0.09_PT054H.grib2 2026-05-01 02:59 254K
20260501T00Z_MSC_RDPS_DewPointDepression_IsbL-0250_RLatLon0.09_PT054H.grib2 2026-05-01 02:59 293K
20260501T00Z_MSC_RDPS_DewPointDepression_IsbL-0275_RLatLon0.09_PT054H.grib2 2026-05-01 02:59 305K
20260501T00Z_MSC_RDPS_DewPointDepression_IsbL-0300_RLatLon0.09_PT054H.grib2 2026-05-01 02:59 323K
20260501T00Z_MSC_RDPS_DewPointDepression_IsbL-0350_RLatLon0.09_PT054H.grib2 2026-05-01 02:59 331K
20260501T00Z_MSC_RDPS_DewPointDepression_IsbL-0400_RLatLon0.09_PT054H.grib2 2026-05-01 02:59 339K
20260501T00Z_MSC_RDPS_DewPointDepression_IsbL-0450_RLatLon0.09_PT054H.grib2 2026-05-01 02:59 346K
20260501T00Z_MSC_RDPS_DewPointDepression_IsbL-0500_RLatLon0.09_PT054H.grib2 2026-05-01 02:59 353K
20260501T00Z_MSC_RDPS_DewPointDepression_IsbL-0550_RLatLon0.09_PT054H.grib2 2026-05-01 02:59 365K
20260501T00Z_MSC_RDPS_DewPointDepression_IsbL-0600_RLatLon0.09_PT054H.grib2 2026-05-01 02:59 375K
20260501T00Z_MSC_RDPS_DewPointDepression_IsbL-0650_RLatLon0.09_PT054H.grib2 2026-05-01 02:59 380K
20260501T00Z_MSC_RDPS_DewPointDepression_IsbL-0700_RLatLon0.09_PT054H.grib2 2026-05-01 02:59 390K
20260501T00Z_MSC_RDPS_DewPointDepression_IsbL-0750_RLatLon0.09_PT054H.grib2 2026-05-01 02:59 406K
20260501T00Z_MSC_RDPS_DewPointDepression_IsbL-0800_RLatLon0.09_PT054H.grib2 2026-05-01 02:59 437K
20260501T00Z_MSC_RDPS_DewPointDepression_IsbL-0850_RLatLon0.09_PT054H.grib2 2026-05-01 02:59 469K
20260501T00Z_MSC_RDPS_DewPointDepression_IsbL-0875_RLatLon0.09_PT054H.grib2 2026-05-01 02:59 475K
20260501T00Z_MSC_RDPS_DewPointDepression_IsbL-0900_RLatLon0.09_PT054H.grib2 2026-05-01 02:59 463K
20260501T00Z_MSC_RDPS_DewPointDepression_IsbL-0925_RLatLon0.09_PT054H.grib2 2026-05-01 02:59 445K
20260501T00Z_MSC_RDPS_DewPointDepression_IsbL-0950_RLatLon0.09_PT054H.grib2 2026-05-01 02:59 440K
20260501T00Z_MSC_RDPS_DewPointDepression_IsbL-0970_RLatLon0.09_PT054H.grib2 2026-05-01 02:59 432K
20260501T00Z_MSC_RDPS_DewPointDepression_IsbL-0985_RLatLon0.09_PT054H.grib2 2026-05-01 02:59 427K
20260501T00Z_MSC_RDPS_DewPointDepression_IsbL-1000_RLatLon0.09_PT054H.grib2 2026-05-01 02:59 422K
20260501T00Z_MSC_RDPS_DewPointDepression_IsbL-1015_RLatLon0.09_PT054H.grib2 2026-05-01 02:59 413K
20260501T00Z_MSC_RDPS_DewPoint_AGL-2m_RLatLon0.09_PT054H.grib2 2026-05-01 02:59 305K
20260501T00Z_MSC_RDPS_DownwardLongwaveRadiationFlux-Accum_Sfc_RLatLon0.09_PT054H.grib2 2026-05-01 02:59 382K
20260501T00Z_MSC_RDPS_DownwardShortwaveRadiationFlux-Accum_NTAtm_RLatLon0.09_PT054H.grib2 2026-05-01 02:59 140K
20260501T00Z_MSC_RDPS_DownwardShortwaveRadiationFlux-Accum_Sfc_RLatLon0.09_PT054H.grib2 2026-05-01 02:59 565K
20260501T00Z_MSC_RDPS_FreezingRain-Accum12h_Sfc_RLatLon0.09_PT054H.grib2 2026-05-01 02:59 55K
20260501T00Z_MSC_RDPS_FreezingRain-Accum1h_Sfc_RLatLon0.09_PT054H.grib2 2026-05-01 02:59 37K
20260501T00Z_MSC_RDPS_FreezingRain-Accum24h_Sfc_RLatLon0.09_PT054H.grib2 2026-05-01 02:59 104K
20260501T00Z_MSC_RDPS_FreezingRain-Accum3h_Sfc_RLatLon0.09_PT054H.grib2 2026-05-01 02:59 41K
20260501T00Z_MSC_RDPS_FreezingRain-Accum6h_Sfc_RLatLon0.09_PT054H.grib2 2026-05-01 02:59 53K
20260501T00Z_MSC_RDPS_FreezingRain-Accum_Sfc_RLatLon0.09_PT054H.grib2 2026-05-01 02:59 182K
20260501T00Z_MSC_RDPS_GeopotentialHeight_IsbL-0001_RLatLon0.09_PT054H.grib2 2026-05-01 02:59 306K
20260501T00Z_MSC_RDPS_GeopotentialHeight_IsbL-0005_RLatLon0.09_PT054H.grib2 2026-05-01 02:59 332K
20260501T00Z_MSC_RDPS_GeopotentialHeight_IsbL-0010_RLatLon0.09_PT054H.grib2 2026-05-01 02:59 299K
20260501T00Z_MSC_RDPS_GeopotentialHeight_IsbL-0020_RLatLon0.09_PT054H.grib2 2026-05-01 02:59 394K
20260501T00Z_MSC_RDPS_GeopotentialHeight_IsbL-0030_RLatLon0.09_PT054H.grib2 2026-05-01 02:59 302K
20260501T00Z_MSC_RDPS_GeopotentialHeight_IsbL-0050_RLatLon0.09_PT054H.grib2 2026-05-01 02:59 339K
20260501T00Z_MSC_RDPS_GeopotentialHeight_IsbL-0100_RLatLon0.09_PT054H.grib2 2026-05-01 02:59 283K
20260501T00Z_MSC_RDPS_GeopotentialHeight_IsbL-0150_RLatLon0.09_PT054H.grib2 2026-05-01 02:59 228K
20260501T00Z_MSC_RDPS_GeopotentialHeight_IsbL-0175_RLatLon0.09_PT054H.grib2 2026-05-01 02:59 261K
20260501T00Z_MSC_RDPS_GeopotentialHeight_IsbL-0200_RLatLon0.09_PT054H.grib2 2026-05-01 02:59 263K
20260501T00Z_MSC_RDPS_GeopotentialHeight_IsbL-0225_RLatLon0.09_PT054H.grib2 2026-05-01 02:59 264K
20260501T00Z_MSC_RDPS_GeopotentialHeight_IsbL-0250_RLatLon0.09_PT054H.grib2 2026-05-01 02:59 264K
20260501T00Z_MSC_RDPS_GeopotentialHeight_IsbL-0275_RLatLon0.09_PT054H.grib2 2026-05-01 02:59 263K
20260501T00Z_MSC_RDPS_GeopotentialHeight_IsbL-0300_RLatLon0.09_PT054H.grib2 2026-05-01 02:59 262K
20260501T00Z_MSC_RDPS_GeopotentialHeight_IsbL-0350_RLatLon0.09_PT054H.grib2 2026-05-01 02:59 229K
20260501T00Z_MSC_RDPS_GeopotentialHeight_IsbL-0400_RLatLon0.09_PT054H.grib2 2026-05-01 02:59 226K
20260501T00Z_MSC_RDPS_GeopotentialHeight_IsbL-0450_RLatLon0.09_PT054H.grib2 2026-05-01 02:59 296K
20260501T00Z_MSC_RDPS_GeopotentialHeight_IsbL-0500_RLatLon0.09_PT054H.grib2 2026-05-01 02:59 291K
20260501T00Z_MSC_RDPS_GeopotentialHeight_IsbL-0550_RLatLon0.09_PT054H.grib2 2026-05-01 02:59 287K
20260501T00Z_MSC_RDPS_GeopotentialHeight_IsbL-0600_RLatLon0.09_PT054H.grib2 2026-05-01 02:59 282K
20260501T00Z_MSC_RDPS_GeopotentialHeight_IsbL-0650_RLatLon0.09_PT054H.grib2 2026-05-01 02:59 254K
20260501T00Z_MSC_RDPS_GeopotentialHeight_IsbL-0700_RLatLon0.09_PT054H.grib2 2026-05-01 02:59 253K
20260501T00Z_MSC_RDPS_GeopotentialHeight_IsbL-0750_RLatLon0.09_PT054H.grib2 2026-05-01 02:59 337K
20260501T00Z_MSC_RDPS_GeopotentialHeight_IsbL-0800_RLatLon0.09_PT054H.grib2 2026-05-01 02:59 346K
20260501T00Z_MSC_RDPS_GeopotentialHeight_IsbL-0850_RLatLon0.09_PT054H.grib2 2026-05-01 02:59 356K
20260501T00Z_MSC_RDPS_GeopotentialHeight_IsbL-0875_RLatLon0.09_PT054H.grib2 2026-05-01 02:59 356K
20260501T00Z_MSC_RDPS_GeopotentialHeight_IsbL-0900_RLatLon0.09_PT054H.grib2 2026-05-01 02:59 361K
20260501T00Z_MSC_RDPS_GeopotentialHeight_IsbL-0925_RLatLon0.09_PT054H.grib2 2026-05-01 02:59 365K
20260501T00Z_MSC_RDPS_GeopotentialHeight_IsbL-0950_RLatLon0.09_PT054H.grib2 2026-05-01 02:59 366K
20260501T00Z_MSC_RDPS_GeopotentialHeight_IsbL-0970_RLatLon0.09_PT054H.grib2 2026-05-01 02:59 373K
20260501T00Z_MSC_RDPS_GeopotentialHeight_IsbL-0985_RLatLon0.09_PT054H.grib2 2026-05-01 02:59 380K
20260501T00Z_MSC_RDPS_GeopotentialHeight_IsbL-1000_RLatLon0.09_PT054H.grib2 2026-05-01 02:59 391K
20260501T00Z_MSC_RDPS_GeopotentialHeight_IsbL-1015_RLatLon0.09_PT054H.grib2 2026-05-01 02:59 405K
20260501T00Z_MSC_RDPS_Humidex_Sfc_RLatLon0.09_PT054H.grib2 2026-05-01 02:59 2.4M
20260501T00Z_MSC_RDPS_IcePellets-Accum12h_Sfc_RLatLon0.09_PT054H.grib2 2026-05-01 02:59 12K
20260501T00Z_MSC_RDPS_IcePellets-Accum1h_Sfc_RLatLon0.09_PT054H.grib2 2026-05-01 02:59 3.2K
20260501T00Z_MSC_RDPS_IcePellets-Accum24h_Sfc_RLatLon0.09_PT054H.grib2 2026-05-01 02:59 17K
20260501T00Z_MSC_RDPS_IcePellets-Accum3h_Sfc_RLatLon0.09_PT054H.grib2 2026-05-01 02:59 5.0K
20260501T00Z_MSC_RDPS_IcePellets-Accum6h_Sfc_RLatLon0.09_PT054H.grib2 2026-05-01 02:59 7.0K
20260501T00Z_MSC_RDPS_IcePellets-Accum_Sfc_RLatLon0.09_PT054H.grib2 2026-05-01 02:59 33K
20260501T00Z_MSC_RDPS_KIndex_Sfc_RLatLon0.09_PT054H.grib2 2026-05-01 02:59 2.4M
20260501T00Z_MSC_RDPS_LatentHeatNetFlux_Sfc_RLatLon0.09_PT054H.grib2 2026-05-01 02:59 405K
20260501T00Z_MSC_RDPS_LiftedIndex-MU-VT_IsbL-0500_RLatLon0.09_PT054H.grib2 2026-05-01 02:59 2.4M
20260501T00Z_MSC_RDPS_NetLongwaveRadiationFlux-Accum_Sfc_RLatLon0.09_PT054H.grib2 2026-05-01 02:59 561K
20260501T00Z_MSC_RDPS_NetShortwaveRadiationFlux-Accum_Sfc_RLatLon0.09_PT054H.grib2 2026-05-01 02:59 567K
20260501T00Z_MSC_RDPS_PlanetaryBoundaryLayerHeight_Sfc_RLatLon0.09_PT054H.grib2 2026-05-01 02:59 1.1M
20260501T00Z_MSC_RDPS_Precip-Accum12h_Sfc_RLatLon0.09_PT054H.grib2 2026-05-01 02:59 1.7M
20260501T00Z_MSC_RDPS_Precip-Accum1h_Sfc_RLatLon0.09_PT054H.grib2 2026-05-01 02:59 1.2M
20260501T00Z_MSC_RDPS_Precip-Accum24h_Sfc_RLatLon0.09_PT054H.grib2 2026-05-01 02:59 2.0M
20260501T00Z_MSC_RDPS_Precip-Accum3h_Sfc_RLatLon0.09_PT054H.grib2 2026-05-01 02:59 1.3M
20260501T00Z_MSC_RDPS_Precip-Accum6h_Sfc_RLatLon0.09_PT054H.grib2 2026-05-01 02:59 1.5M
20260501T00Z_MSC_RDPS_Precip-Accum_Sfc_RLatLon0.09_PT054H.grib2 2026-05-01 02:59 2.1M
20260501T00Z_MSC_RDPS_PrecipRate_Sfc_RLatLon0.09_PT054H.grib2 2026-05-01 02:59 129K
20260501T00Z_MSC_RDPS_PrecipType-Instant_Sfc_RLatLon0.09_PT054H.grib2 2026-05-01 02:59 583K
20260501T00Z_MSC_RDPS_Pressure-Trend3h_Sfc_RLatLon0.09_PT054H.grib2 2026-05-01 02:59 1.2M
20260501T00Z_MSC_RDPS_Pressure_MSL_RLatLon0.09_PT054H.grib2 2026-05-01 02:59 323K
20260501T00Z_MSC_RDPS_Pressure_PVU-1.5_RLatLon0.09_PT054H.grib2 2026-05-01 02:59 2.5M
20260501T00Z_MSC_RDPS_Pressure_PVU-1_RLatLon0.09_PT054H.grib2 2026-05-01 02:59 2.4M
20260501T00Z_MSC_RDPS_Pressure_PVU-2_RLatLon0.09_PT054H.grib2 2026-05-01 02:59 2.4M
20260501T00Z_MSC_RDPS_Pressure_Sfc_RLatLon0.09_PT054H.grib2 2026-05-01 02:59 499K
20260501T00Z_MSC_RDPS_RadiativeTemp_Sfc_RLatLon0.09_PT054H.grib2 2026-05-01 02:59 303K
20260501T00Z_MSC_RDPS_Rain-Accum12h_Sfc_RLatLon0.09_PT054H.grib2 2026-05-01 02:59 1.2M
20260501T00Z_MSC_RDPS_Rain-Accum1h_Sfc_RLatLon0.09_PT054H.grib2 2026-05-01 02:59 528K
20260501T00Z_MSC_RDPS_Rain-Accum24h_Sfc_RLatLon0.09_PT054H.grib2 2026-05-01 02:59 1.4M
20260501T00Z_MSC_RDPS_Rain-Accum3h_Sfc_RLatLon0.09_PT054H.grib2 2026-05-01 02:59 681K
20260501T00Z_MSC_RDPS_Rain-Accum6h_Sfc_RLatLon0.09_PT054H.grib2 2026-05-01 02:59 1.0M
20260501T00Z_MSC_RDPS_Rain-Accum_Sfc_RLatLon0.09_PT054H.grib2 2026-05-01 02:59 1.7M
20260501T00Z_MSC_RDPS_RelativeHumidity_AGL-2m_RLatLon0.09_PT054H.grib2 2026-05-01 02:59 1.0M
20260501T00Z_MSC_RDPS_RelativeHumidity_IsbL-0010_RLatLon0.09_PT054H.grib2 2026-05-01 02:59 621K
20260501T00Z_MSC_RDPS_RelativeHumidity_IsbL-0020_RLatLon0.09_PT054H.grib2 2026-05-01 02:59 662K
20260501T00Z_MSC_RDPS_RelativeHumidity_IsbL-0030_RLatLon0.09_PT054H.grib2 2026-05-01 02:59 604K
20260501T00Z_MSC_RDPS_RelativeHumidity_IsbL-0050_RLatLon0.09_PT054H.grib2 2026-05-01 02:59 308K
20260501T00Z_MSC_RDPS_RelativeHumidity_IsbL-0100_RLatLon0.09_PT054H.grib2 2026-05-01 02:59 277K
20260501T00Z_MSC_RDPS_RelativeHumidity_IsbL-0150_RLatLon0.09_PT054H.grib2 2026-05-01 02:59 412K
20260501T00Z_MSC_RDPS_RelativeHumidity_IsbL-0175_RLatLon0.09_PT054H.grib2 2026-05-01 02:59 475K
20260501T00Z_MSC_RDPS_RelativeHumidity_IsbL-0200_RLatLon0.09_PT054H.grib2 2026-05-01 02:59 549K
20260501T00Z_MSC_RDPS_RelativeHumidity_IsbL-0225_RLatLon0.09_PT054H.grib2 2026-05-01 02:59 613K
20260501T00Z_MSC_RDPS_RelativeHumidity_IsbL-0250_RLatLon0.09_PT054H.grib2 2026-05-01 02:59 677K
20260501T00Z_MSC_RDPS_RelativeHumidity_IsbL-0275_RLatLon0.09_PT054H.grib2 2026-05-01 02:59 703K
20260501T00Z_MSC_RDPS_RelativeHumidity_IsbL-0300_RLatLon0.09_PT054H.grib2 2026-05-01 02:59 743K
20260501T00Z_MSC_RDPS_RelativeHumidity_IsbL-0350_RLatLon0.09_PT054H.grib2 2026-05-01 02:59 769K
20260501T00Z_MSC_RDPS_RelativeHumidity_IsbL-0400_RLatLon0.09_PT054H.grib2 2026-05-01 02:59 783K
20260501T00Z_MSC_RDPS_RelativeHumidity_IsbL-0450_RLatLon0.09_PT054H.grib2 2026-05-01 02:59 793K
20260501T00Z_MSC_RDPS_RelativeHumidity_IsbL-0500_RLatLon0.09_PT054H.grib2 2026-05-01 02:59 802K
20260501T00Z_MSC_RDPS_RelativeHumidity_IsbL-0550_RLatLon0.09_PT054H.grib2 2026-05-01 02:59 823K
20260501T00Z_MSC_RDPS_RelativeHumidity_IsbL-0600_RLatLon0.09_PT054H.grib2 2026-05-01 02:59 841K
20260501T00Z_MSC_RDPS_RelativeHumidity_IsbL-0650_RLatLon0.09_PT054H.grib2 2026-05-01 02:59 854K
20260501T00Z_MSC_RDPS_RelativeHumidity_IsbL-0700_RLatLon0.09_PT054H.grib2 2026-05-01 02:59 874K
20260501T00Z_MSC_RDPS_RelativeHumidity_IsbL-0750_RLatLon0.09_PT054H.grib2 2026-05-01 02:59 918K
20260501T00Z_MSC_RDPS_RelativeHumidity_IsbL-0800_RLatLon0.09_PT054H.grib2 2026-05-01 02:59 1.0M
20260501T00Z_MSC_RDPS_RelativeHumidity_IsbL-0850_RLatLon0.09_PT054H.grib2 2026-05-01 02:59 1.0M
20260501T00Z_MSC_RDPS_RelativeHumidity_IsbL-0875_RLatLon0.09_PT054H.grib2 2026-05-01 02:59 1.1M
20260501T00Z_MSC_RDPS_RelativeHumidity_IsbL-0900_RLatLon0.09_PT054H.grib2 2026-05-01 02:59 1.1M
20260501T00Z_MSC_RDPS_RelativeHumidity_IsbL-0925_RLatLon0.09_PT054H.grib2 2026-05-01 02:59 1.1M
20260501T00Z_MSC_RDPS_RelativeHumidity_IsbL-0950_RLatLon0.09_PT054H.grib2 2026-05-01 02:59 1.1M
20260501T00Z_MSC_RDPS_RelativeHumidity_IsbL-0970_RLatLon0.09_PT054H.grib2 2026-05-01 02:59 1.0M
20260501T00Z_MSC_RDPS_RelativeHumidity_IsbL-0985_RLatLon0.09_PT054H.grib2 2026-05-01 02:59 1.0M
20260501T00Z_MSC_RDPS_RelativeHumidity_IsbL-1000_RLatLon0.09_PT054H.grib2 2026-05-01 02:59 1.0M
20260501T00Z_MSC_RDPS_RelativeHumidity_IsbL-1015_RLatLon0.09_PT054H.grib2 2026-05-01 02:59 1.0M
20260501T00Z_MSC_RDPS_Runoff-Accum_Sfc_RLatLon0.09_PT054H.grib2 2026-05-01 02:59 60K
20260501T00Z_MSC_RDPS_SWEATIndex_Sfc_RLatLon0.09_PT054H.grib2 2026-05-01 02:59 2.4M
20260501T00Z_MSC_RDPS_SeeingIndex_EAtm_RLatLon0.09_PT054H.grib2 2026-05-01 02:59 1.0M
20260501T00Z_MSC_RDPS_SensibleHeatNetFlux_Sfc_RLatLon0.09_PT054H.grib2 2026-05-01 02:59 291K
20260501T00Z_MSC_RDPS_ShowalterIndex_IsbL-0500_RLatLon0.09_PT054H.grib2 2026-05-01 02:59 2.6M
20260501T00Z_MSC_RDPS_SkyTransparencyIndex_EAtm_RLatLon0.09_PT054H.grib2 2026-05-01 02:59 701K
20260501T00Z_MSC_RDPS_Snow-Accum12h_Sfc_RLatLon0.09_PT054H.grib2 2026-05-01 02:59 560K
20260501T00Z_MSC_RDPS_Snow-Accum1h_Sfc_RLatLon0.09_PT054H.grib2 2026-05-01 02:59 460K
20260501T00Z_MSC_RDPS_Snow-Accum24h_Sfc_RLatLon0.09_PT054H.grib2 2026-05-01 02:59 623K
20260501T00Z_MSC_RDPS_Snow-Accum3h_Sfc_RLatLon0.09_PT054H.grib2 2026-05-01 02:59 415K
20260501T00Z_MSC_RDPS_Snow-Accum6h_Sfc_RLatLon0.09_PT054H.grib2 2026-05-01 02:59 546K
20260501T00Z_MSC_RDPS_Snow-Accum_Sfc_RLatLon0.09_PT054H.grib2 2026-05-01 02:59 724K
20260501T00Z_MSC_RDPS_SnowDensity_Sfc_RLatLon0.09_PT054H.grib2 2026-05-01 02:59 173K
20260501T00Z_MSC_RDPS_SnowDepth_Sfc_RLatLon0.09_PT054H.grib2 2026-05-01 02:59 658K
20260501T00Z_MSC_RDPS_SoilTemp_DBS-0to10cm_RLatLon0.09_PT054H.grib2 2026-05-01 02:59 241K
20260501T00Z_MSC_RDPS_SoilTemp_Sfc_RLatLon0.09_PT054H.grib2 2026-05-01 02:59 264K
20260501T00Z_MSC_RDPS_SoilVolumetricIceContent_Sfc_RLatLon0.09_PT054H.grib2 2026-05-01 02:59 158K
20260501T00Z_MSC_RDPS_SoilVolumetricWaterContent_DBS-0to10cm_RLatLon0.09_PT054H.grib2 2026-05-01 02:59 273K
20260501T00Z_MSC_RDPS_SoilVolumetricWaterContent_DBS-0to1cm_RLatLon0.09_PT054H.grib2 2026-05-01 02:59 342K
20260501T00Z_MSC_RDPS_SpecificHumidity_AGL-120m_RLatLon0.09_PT054H.grib2 2026-05-01 02:59 487K
20260501T00Z_MSC_RDPS_SpecificHumidity_AGL-2m_RLatLon0.09_PT054H.grib2 2026-05-01 02:59 651K
20260501T00Z_MSC_RDPS_SpecificHumidity_AGL-40m_RLatLon0.09_PT054H.grib2 2026-05-01 02:59 493K
20260501T00Z_MSC_RDPS_SpecificHumidity_AGL-80m_RLatLon0.09_PT054H.grib2 2026-05-01 02:59 489K
20260501T00Z_MSC_RDPS_SpecificHumidity_IsbL-0001_RLatLon0.09_PT054H.grib2 2026-05-01 02:59 357K
20260501T00Z_MSC_RDPS_SpecificHumidity_IsbL-0005_RLatLon0.09_PT054H.grib2 2026-05-01 02:59 362K
20260501T00Z_MSC_RDPS_SpecificHumidity_IsbL-0010_RLatLon0.09_PT054H.grib2 2026-05-01 02:59 396K
20260501T00Z_MSC_RDPS_SpecificHumidity_IsbL-0020_RLatLon0.09_PT054H.grib2 2026-05-01 02:59 378K
20260501T00Z_MSC_RDPS_SpecificHumidity_IsbL-0030_RLatLon0.09_PT054H.grib2 2026-05-01 02:59 477K
20260501T00Z_MSC_RDPS_SpecificHumidity_IsbL-0050_RLatLon0.09_PT054H.grib2 2026-05-01 02:59 477K
20260501T00Z_MSC_RDPS_SpecificHumidity_IsbL-0100_RLatLon0.09_PT054H.grib2 2026-05-01 02:59 421K
20260501T00Z_MSC_RDPS_SpecificHumidity_IsbL-0150_RLatLon0.09_PT054H.grib2 2026-05-01 02:59 453K
20260501T00Z_MSC_RDPS_SpecificHumidity_IsbL-0175_RLatLon0.09_PT054H.grib2 2026-05-01 02:59 435K
20260501T00Z_MSC_RDPS_SpecificHumidity_IsbL-0200_RLatLon0.09_PT054H.grib2 2026-05-01 02:59 449K
20260501T00Z_MSC_RDPS_SpecificHumidity_IsbL-0225_RLatLon0.09_PT054H.grib2 2026-05-01 02:59 450K
20260501T00Z_MSC_RDPS_SpecificHumidity_IsbL-0250_RLatLon0.09_PT054H.grib2 2026-05-01 02:59 509K
20260501T00Z_MSC_RDPS_SpecificHumidity_IsbL-0275_RLatLon0.09_PT054H.grib2 2026-05-01 02:59 469K
20260501T00Z_MSC_RDPS_SpecificHumidity_IsbL-0300_RLatLon0.09_PT054H.grib2 2026-05-01 02:59 442K
20260501T00Z_MSC_RDPS_SpecificHumidity_IsbL-0350_RLatLon0.09_PT054H.grib2 2026-05-01 02:59 563K
20260501T00Z_MSC_RDPS_SpecificHumidity_IsbL-0400_RLatLon0.09_PT054H.grib2 2026-05-01 02:59 518K
20260501T00Z_MSC_RDPS_SpecificHumidity_IsbL-0450_RLatLon0.09_PT054H.grib2 2026-05-01 02:59 571K
20260501T00Z_MSC_RDPS_SpecificHumidity_IsbL-0500_RLatLon0.09_PT054H.grib2 2026-05-01 02:59 507K
20260501T00Z_MSC_RDPS_SpecificHumidity_IsbL-0550_RLatLon0.09_PT054H.grib2 2026-05-01 02:59 583K
20260501T00Z_MSC_RDPS_SpecificHumidity_IsbL-0600_RLatLon0.09_PT054H.grib2 2026-05-01 02:59 635K
20260501T00Z_MSC_RDPS_SpecificHumidity_IsbL-0650_RLatLon0.09_PT054H.grib2 2026-05-01 02:59 551K
20260501T00Z_MSC_RDPS_SpecificHumidity_IsbL-0700_RLatLon0.09_PT054H.grib2 2026-05-01 02:59 592K
20260501T00Z_MSC_RDPS_SpecificHumidity_IsbL-0750_RLatLon0.09_PT054H.grib2 2026-05-01 02:59 642K
20260501T00Z_MSC_RDPS_SpecificHumidity_IsbL-0800_RLatLon0.09_PT054H.grib2 2026-05-01 02:59 721K
20260501T00Z_MSC_RDPS_SpecificHumidity_IsbL-0850_RLatLon0.09_PT054H.grib2 2026-05-01 02:59 798K
20260501T00Z_MSC_RDPS_SpecificHumidity_IsbL-0875_RLatLon0.09_PT054H.grib2 2026-05-01 02:59 828K
20260501T00Z_MSC_RDPS_SpecificHumidity_IsbL-0900_RLatLon0.09_PT054H.grib2 2026-05-01 02:59 842K
20260501T00Z_MSC_RDPS_SpecificHumidity_IsbL-0925_RLatLon0.09_PT054H.grib2 2026-05-01 02:59 838K
20260501T00Z_MSC_RDPS_SpecificHumidity_IsbL-0950_RLatLon0.09_PT054H.grib2 2026-05-01 02:59 839K
20260501T00Z_MSC_RDPS_SpecificHumidity_IsbL-0970_RLatLon0.09_PT054H.grib2 2026-05-01 02:59 688K
20260501T00Z_MSC_RDPS_SpecificHumidity_IsbL-0985_RLatLon0.09_PT054H.grib2 2026-05-01 02:59 682K
20260501T00Z_MSC_RDPS_SpecificHumidity_IsbL-1000_RLatLon0.09_PT054H.grib2 2026-05-01 02:59 675K
20260501T00Z_MSC_RDPS_SpecificHumidity_IsbL-1015_RLatLon0.09_PT054H.grib2 2026-05-01 02:59 664K
20260501T00Z_MSC_RDPS_SpecificHumidity_Sfc_RLatLon0.09_PT054H.grib2 2026-05-01 02:59 297K
20260501T00Z_MSC_RDPS_StormRelativeHelicity_EtaL-10000_RLatLon0.09_PT054H.grib2 2026-05-01 02:59 1.1M
20260501T00Z_MSC_RDPS_StormSeverityIndex_EtaL-10000_RLatLon0.09_PT054H.grib2 2026-05-01 02:59 1.2M
20260501T00Z_MSC_RDPS_Thickness_IsbL-0850to0700_RLatLon0.09_PT054H.grib2 2026-05-01 02:59 176K
20260501T00Z_MSC_RDPS_Thickness_IsbL-1000to0500_RLatLon0.09_PT054H.grib2 2026-05-01 02:59 195K
20260501T00Z_MSC_RDPS_Thickness_IsbL-1000to0850_RLatLon0.09_PT054H.grib2 2026-05-01 02:59 259K
20260501T00Z_MSC_RDPS_TotalCloudCover_Sfc_RLatLon0.09_PT054H.grib2 2026-05-01 02:59 656K
20260501T00Z_MSC_RDPS_TotalTotalsIndex_Sfc_RLatLon0.09_PT054H.grib2 2026-05-01 02:59 2.3M
20260501T00Z_MSC_RDPS_UVIndex-ClearSky_Sfc_RLatLon0.09_PT054H.grib2 2026-05-01 02:59 126K
20260501T00Z_MSC_RDPS_UVIndex_Sfc_RLatLon0.09_PT054H.grib2 2026-05-01 02:59 206K
20260501T00Z_MSC_RDPS_UpwardLongwaveRadiationFlux_NTAtm_RLatLon0.09_PT054H.grib2 2026-05-01 02:59 481K
20260501T00Z_MSC_RDPS_UpwardShortwaveRadiationFlux_NTAtm_RLatLon0.09_PT054H.grib2 2026-05-01 02:59 177K
20260501T00Z_MSC_RDPS_VerticalVelocity_IsbL-0250_RLatLon0.09_PT054H.grib2 2026-05-01 02:59 430K
20260501T00Z_MSC_RDPS_VerticalVelocity_IsbL-0500_RLatLon0.09_PT054H.grib2 2026-05-01 02:59 538K
20260501T00Z_MSC_RDPS_VerticalVelocity_IsbL-0700_RLatLon0.09_PT054H.grib2 2026-05-01 02:59 587K
20260501T00Z_MSC_RDPS_VerticalVelocity_IsbL-0850_RLatLon0.09_PT054H.grib2 2026-05-01 02:59 691K
20260501T00Z_MSC_RDPS_VerticalWindShear_EtaL-6500_RLatLon0.09_PT054H.grib2 2026-05-01 02:59 1.2M
20260501T00Z_MSC_RDPS_WindChill_Sfc_RLatLon0.09_PT054H.grib2 2026-05-01 02:59 1.2M
20260501T00Z_MSC_RDPS_WindDir_AGL-10m_RLatLon0.09_PT054H.grib2 2026-05-01 02:59 959K
20260501T00Z_MSC_RDPS_WindDir_AGL-120m_RLatLon0.09_PT054H.grib2 2026-05-01 02:59 595K
20260501T00Z_MSC_RDPS_WindDir_AGL-40m_RLatLon0.09_PT054H.grib2 2026-05-01 02:59 627K
20260501T00Z_MSC_RDPS_WindDir_AGL-80m_RLatLon0.09_PT054H.grib2 2026-05-01 02:59 607K
20260501T00Z_MSC_RDPS_WindDir_IsbL-0001_RLatLon0.09_PT054H.grib2 2026-05-01 02:59 319K
20260501T00Z_MSC_RDPS_WindDir_IsbL-0005_RLatLon0.09_PT054H.grib2 2026-05-01 02:59 397K
20260501T00Z_MSC_RDPS_WindDir_IsbL-0010_RLatLon0.09_PT054H.grib2 2026-05-01 02:59 393K
20260501T00Z_MSC_RDPS_WindDir_IsbL-0020_RLatLon0.09_PT054H.grib2 2026-05-01 02:59 433K
20260501T00Z_MSC_RDPS_WindDir_IsbL-0030_RLatLon0.09_PT054H.grib2 2026-05-01 02:59 423K
20260501T00Z_MSC_RDPS_WindDir_IsbL-0050_RLatLon0.09_PT054H.grib2 2026-05-01 02:59 416K
20260501T00Z_MSC_RDPS_WindDir_IsbL-0100_RLatLon0.09_PT054H.grib2 2026-05-01 02:59 412K
20260501T00Z_MSC_RDPS_WindDir_IsbL-0150_RLatLon0.09_PT054H.grib2 2026-05-01 02:59 409K
20260501T00Z_MSC_RDPS_WindDir_IsbL-0175_RLatLon0.09_PT054H.grib2 2026-05-01 02:59 425K
20260501T00Z_MSC_RDPS_WindDir_IsbL-0200_RLatLon0.09_PT054H.grib2 2026-05-01 02:59 442K
20260501T00Z_MSC_RDPS_WindDir_IsbL-0225_RLatLon0.09_PT054H.grib2 2026-05-01 02:59 446K
20260501T00Z_MSC_RDPS_WindDir_IsbL-0250_RLatLon0.09_PT054H.grib2 2026-05-01 02:59 448K
20260501T00Z_MSC_RDPS_WindDir_IsbL-0275_RLatLon0.09_PT054H.grib2 2026-05-01 02:59 473K
20260501T00Z_MSC_RDPS_WindDir_IsbL-0300_RLatLon0.09_PT054H.grib2 2026-05-01 02:59 472K
20260501T00Z_MSC_RDPS_WindDir_IsbL-0350_RLatLon0.09_PT054H.grib2 2026-05-01 02:59 499K
20260501T00Z_MSC_RDPS_WindDir_IsbL-0400_RLatLon0.09_PT054H.grib2 2026-05-01 02:59 517K
20260501T00Z_MSC_RDPS_WindDir_IsbL-0450_RLatLon0.09_PT054H.grib2 2026-05-01 02:59 525K
20260501T00Z_MSC_RDPS_WindDir_IsbL-0500_RLatLon0.09_PT054H.grib2 2026-05-01 02:59 533K
20260501T00Z_MSC_RDPS_WindDir_IsbL-0550_RLatLon0.09_PT054H.grib2 2026-05-01 02:59 551K
20260501T00Z_MSC_RDPS_WindDir_IsbL-0600_RLatLon0.09_PT054H.grib2 2026-05-01 02:59 573K
20260501T00Z_MSC_RDPS_WindDir_IsbL-0650_RLatLon0.09_PT054H.grib2 2026-05-01 02:59 606K
20260501T00Z_MSC_RDPS_WindDir_IsbL-0700_RLatLon0.09_PT054H.grib2 2026-05-01 02:59 648K
20260501T00Z_MSC_RDPS_WindDir_IsbL-0750_RLatLon0.09_PT054H.grib2 2026-05-01 02:59 689K
20260501T00Z_MSC_RDPS_WindDir_IsbL-0800_RLatLon0.09_PT054H.grib2 2026-05-01 02:59 757K
20260501T00Z_MSC_RDPS_WindDir_IsbL-0850_RLatLon0.09_PT054H.grib2 2026-05-01 02:59 849K
20260501T00Z_MSC_RDPS_WindDir_IsbL-0875_RLatLon0.09_PT054H.grib2 2026-05-01 02:59 883K
20260501T00Z_MSC_RDPS_WindDir_IsbL-0900_RLatLon0.09_PT054H.grib2 2026-05-01 02:59 900K
20260501T00Z_MSC_RDPS_WindDir_IsbL-0925_RLatLon0.09_PT054H.grib2 2026-05-01 02:59 911K
20260501T00Z_MSC_RDPS_WindDir_IsbL-0950_RLatLon0.09_PT054H.grib2 2026-05-01 02:59 910K
20260501T00Z_MSC_RDPS_WindDir_IsbL-0970_RLatLon0.09_PT054H.grib2 2026-05-01 02:59 919K
20260501T00Z_MSC_RDPS_WindDir_IsbL-0985_RLatLon0.09_PT054H.grib2 2026-05-01 02:59 926K
20260501T00Z_MSC_RDPS_WindDir_IsbL-1000_RLatLon0.09_PT054H.grib2 2026-05-01 02:59 936K
20260501T00Z_MSC_RDPS_WindDir_IsbL-1015_RLatLon0.09_PT054H.grib2 2026-05-01 02:59 951K
20260501T00Z_MSC_RDPS_WindGust-Max_AGL-10m_RLatLon0.09_PT054H.grib2 2026-05-01 02:59 1.0M
20260501T00Z_MSC_RDPS_WindGust-Min_AGL-10m_RLatLon0.09_PT054H.grib2 2026-05-01 02:59 966K
20260501T00Z_MSC_RDPS_WindGust_AGL-10m_RLatLon0.09_PT054H.grib2 2026-05-01 02:59 1.0M
20260501T00Z_MSC_RDPS_WindSpeed_AGL-10m_RLatLon0.09_PT054H.grib2 2026-05-01 02:59 836K
20260501T00Z_MSC_RDPS_WindSpeed_AGL-120m_RLatLon0.09_PT054H.grib2 2026-05-01 02:59 538K
20260501T00Z_MSC_RDPS_WindSpeed_AGL-40m_RLatLon0.09_PT054H.grib2 2026-05-01 02:59 540K
20260501T00Z_MSC_RDPS_WindSpeed_AGL-80m_RLatLon0.09_PT054H.grib2 2026-05-01 02:59 539K
20260501T00Z_MSC_RDPS_WindSpeed_IsbL-0001_RLatLon0.09_PT054H.grib2 2026-05-01 02:59 330K
20260501T00Z_MSC_RDPS_WindSpeed_IsbL-0005_RLatLon0.09_PT054H.grib2 2026-05-01 02:59 385K
20260501T00Z_MSC_RDPS_WindSpeed_IsbL-0010_RLatLon0.09_PT054H.grib2 2026-05-01 02:59 361K
20260501T00Z_MSC_RDPS_WindSpeed_IsbL-0020_RLatLon0.09_PT054H.grib2 2026-05-01 02:59 415K
20260501T00Z_MSC_RDPS_WindSpeed_IsbL-0030_RLatLon0.09_PT054H.grib2 2026-05-01 02:59 319K
20260501T00Z_MSC_RDPS_WindSpeed_IsbL-0050_RLatLon0.09_PT054H.grib2 2026-05-01 02:59 351K
20260501T00Z_MSC_RDPS_WindSpeed_IsbL-0100_RLatLon0.09_PT054H.grib2 2026-05-01 02:59 475K
20260501T00Z_MSC_RDPS_WindSpeed_IsbL-0150_RLatLon0.09_PT054H.grib2 2026-05-01 02:59 381K
20260501T00Z_MSC_RDPS_WindSpeed_IsbL-0175_RLatLon0.09_PT054H.grib2 2026-05-01 02:59 427K
20260501T00Z_MSC_RDPS_WindSpeed_IsbL-0200_RLatLon0.09_PT054H.grib2 2026-05-01 02:59 442K
20260501T00Z_MSC_RDPS_WindSpeed_IsbL-0225_RLatLon0.09_PT054H.grib2 2026-05-01 02:59 448K
20260501T00Z_MSC_RDPS_WindSpeed_IsbL-0250_RLatLon0.09_PT054H.grib2 2026-05-01 02:59 451K
20260501T00Z_MSC_RDPS_WindSpeed_IsbL-0275_RLatLon0.09_PT054H.grib2 2026-05-01 02:59 469K
20260501T00Z_MSC_RDPS_WindSpeed_IsbL-0300_RLatLon0.09_PT054H.grib2 2026-05-01 02:59 467K
20260501T00Z_MSC_RDPS_WindSpeed_IsbL-0350_RLatLon0.09_PT054H.grib2 2026-05-01 02:59 476K
20260501T00Z_MSC_RDPS_WindSpeed_IsbL-0400_RLatLon0.09_PT054H.grib2 2026-05-01 02:59 463K
20260501T00Z_MSC_RDPS_WindSpeed_IsbL-0450_RLatLon0.09_PT054H.grib2 2026-05-01 02:59 464K
20260501T00Z_MSC_RDPS_WindSpeed_IsbL-0500_RLatLon0.09_PT054H.grib2 2026-05-01 02:59 463K
20260501T00Z_MSC_RDPS_WindSpeed_IsbL-0550_RLatLon0.09_PT054H.grib2 2026-05-01 02:59 466K
20260501T00Z_MSC_RDPS_WindSpeed_IsbL-0600_RLatLon0.09_PT054H.grib2 2026-05-01 02:59 591K
20260501T00Z_MSC_RDPS_WindSpeed_IsbL-0650_RLatLon0.09_PT054H.grib2 2026-05-01 02:59 608K
20260501T00Z_MSC_RDPS_WindSpeed_IsbL-0700_RLatLon0.09_PT054H.grib2 2026-05-01 02:59 675K
20260501T00Z_MSC_RDPS_WindSpeed_IsbL-0750_RLatLon0.09_PT054H.grib2 2026-05-01 02:59 705K
20260501T00Z_MSC_RDPS_WindSpeed_IsbL-0800_RLatLon0.09_PT054H.grib2 2026-05-01 02:59 753K
20260501T00Z_MSC_RDPS_WindSpeed_IsbL-0850_RLatLon0.09_PT054H.grib2 2026-05-01 02:59 814K
20260501T00Z_MSC_RDPS_WindSpeed_IsbL-0875_RLatLon0.09_PT054H.grib2 2026-05-01 02:59 839K
20260501T00Z_MSC_RDPS_WindSpeed_IsbL-0900_RLatLon0.09_PT054H.grib2 2026-05-01 02:59 852K
20260501T00Z_MSC_RDPS_WindSpeed_IsbL-0925_RLatLon0.09_PT054H.grib2 2026-05-01 02:59 864K
20260501T00Z_MSC_RDPS_WindSpeed_IsbL-0950_RLatLon0.09_PT054H.grib2 2026-05-01 02:59 861K
20260501T00Z_MSC_RDPS_WindSpeed_IsbL-0970_RLatLon0.09_PT054H.grib2 2026-05-01 02:59 864K
20260501T00Z_MSC_RDPS_WindSpeed_IsbL-0985_RLatLon0.09_PT054H.grib2 2026-05-01 02:59 855K
20260501T00Z_MSC_RDPS_WindSpeed_IsbL-1000_RLatLon0.09_PT054H.grib2 2026-05-01 02:59 847K
20260501T00Z_MSC_RDPS_WindSpeed_IsbL-1015_RLatLon0.09_PT054H.grib2 2026-05-01 02:59 836K
20260501T00Z_MSC_RDPS_WindU_AGL-10m_RLatLon0.09_PT054H.grib2 2026-05-01 02:59 428K
20260501T00Z_MSC_RDPS_WindU_AGL-120m_RLatLon0.09_PT054H.grib2 2026-05-01 02:59 533K
20260501T00Z_MSC_RDPS_WindU_AGL-40m_RLatLon0.09_PT054H.grib2 2026-05-01 02:59 536K
20260501T00Z_MSC_RDPS_WindU_AGL-80m_RLatLon0.09_PT054H.grib2 2026-05-01 02:59 534K
20260501T00Z_MSC_RDPS_WindU_IsbL-0001_RLatLon0.09_PT054H.grib2 2026-05-01 02:59 240K
20260501T00Z_MSC_RDPS_WindU_IsbL-0005_RLatLon0.09_PT054H.grib2 2026-05-01 02:59 283K
20260501T00Z_MSC_RDPS_WindU_IsbL-0010_RLatLon0.09_PT054H.grib2 2026-05-01 02:59 294K
20260501T00Z_MSC_RDPS_WindU_IsbL-0020_RLatLon0.09_PT054H.grib2 2026-05-01 02:59 310K
20260501T00Z_MSC_RDPS_WindU_IsbL-0030_RLatLon0.09_PT054H.grib2 2026-05-01 02:59 351K
20260501T00Z_MSC_RDPS_WindU_IsbL-0050_RLatLon0.09_PT054H.grib2 2026-05-01 02:59 380K
20260501T00Z_MSC_RDPS_WindU_IsbL-0100_RLatLon0.09_PT054H.grib2 2026-05-01 02:59 431K
20260501T00Z_MSC_RDPS_WindU_IsbL-0150_RLatLon0.09_PT054H.grib2 2026-05-01 02:59 396K
20260501T00Z_MSC_RDPS_WindU_IsbL-0175_RLatLon0.09_PT054H.grib2 2026-05-01 02:59 419K
20260501T00Z_MSC_RDPS_WindU_IsbL-0200_RLatLon0.09_PT054H.grib2 2026-05-01 02:59 337K
20260501T00Z_MSC_RDPS_WindU_IsbL-0225_RLatLon0.09_PT054H.grib2 2026-05-01 02:59 341K
20260501T00Z_MSC_RDPS_WindU_IsbL-0250_RLatLon0.09_PT054H.grib2 2026-05-01 02:59 343K
20260501T00Z_MSC_RDPS_WindU_IsbL-0275_RLatLon0.09_PT054H.grib2 2026-05-01 02:59 358K
20260501T00Z_MSC_RDPS_WindU_IsbL-0300_RLatLon0.09_PT054H.grib2 2026-05-01 02:59 355K
20260501T00Z_MSC_RDPS_WindU_IsbL-0350_RLatLon0.09_PT054H.grib2 2026-05-01 02:59 362K
20260501T00Z_MSC_RDPS_WindU_IsbL-0400_RLatLon0.09_PT054H.grib2 2026-05-01 02:59 469K
20260501T00Z_MSC_RDPS_WindU_IsbL-0450_RLatLon0.09_PT054H.grib2 2026-05-01 02:59 469K
20260501T00Z_MSC_RDPS_WindU_IsbL-0500_RLatLon0.09_PT054H.grib2 2026-05-01 02:59 471K
20260501T00Z_MSC_RDPS_WindU_IsbL-0550_RLatLon0.09_PT054H.grib2 2026-05-01 02:59 473K
20260501T00Z_MSC_RDPS_WindU_IsbL-0600_RLatLon0.09_PT054H.grib2 2026-05-01 02:59 480K
20260501T00Z_MSC_RDPS_WindU_IsbL-0650_RLatLon0.09_PT054H.grib2 2026-05-01 02:59 479K
20260501T00Z_MSC_RDPS_WindU_IsbL-0700_RLatLon0.09_PT054H.grib2 2026-05-01 02:59 501K
20260501T00Z_MSC_RDPS_WindU_IsbL-0750_RLatLon0.09_PT054H.grib2 2026-05-01 02:59 527K
20260501T00Z_MSC_RDPS_WindU_IsbL-0800_RLatLon0.09_PT054H.grib2 2026-05-01 02:59 569K
20260501T00Z_MSC_RDPS_WindU_IsbL-0850_RLatLon0.09_PT054H.grib2 2026-05-01 02:59 623K
20260501T00Z_MSC_RDPS_WindU_IsbL-0875_RLatLon0.09_PT054H.grib2 2026-05-01 02:59 644K
20260501T00Z_MSC_RDPS_WindU_IsbL-0900_RLatLon0.09_PT054H.grib2 2026-05-01 02:59 654K
20260501T00Z_MSC_RDPS_WindU_IsbL-0925_RLatLon0.09_PT054H.grib2 2026-05-01 02:59 661K
20260501T00Z_MSC_RDPS_WindU_IsbL-0950_RLatLon0.09_PT054H.grib2 2026-05-01 02:59 657K
20260501T00Z_MSC_RDPS_WindU_IsbL-0970_RLatLon0.09_PT054H.grib2 2026-05-01 02:59 656K
20260501T00Z_MSC_RDPS_WindU_IsbL-0985_RLatLon0.09_PT054H.grib2 2026-05-01 02:59 650K
20260501T00Z_MSC_RDPS_WindU_IsbL-1000_RLatLon0.09_PT054H.grib2 2026-05-01 02:59 783K
20260501T00Z_MSC_RDPS_WindU_IsbL-1015_RLatLon0.09_PT054H.grib2 2026-05-01 02:59 775K
20260501T00Z_MSC_RDPS_WindV_AGL-10m_RLatLon0.09_PT054H.grib2 2026-05-01 02:59 429K
20260501T00Z_MSC_RDPS_WindV_AGL-120m_RLatLon0.09_PT054H.grib2 2026-05-01 02:59 418K
20260501T00Z_MSC_RDPS_WindV_AGL-40m_RLatLon0.09_PT054H.grib2 2026-05-01 02:59 536K
20260501T00Z_MSC_RDPS_WindV_AGL-80m_RLatLon0.09_PT054H.grib2 2026-05-01 02:59 418K
20260501T00Z_MSC_RDPS_WindV_IsbL-0001_RLatLon0.09_PT054H.grib2 2026-05-01 02:59 245K
20260501T00Z_MSC_RDPS_WindV_IsbL-0005_RLatLon0.09_PT054H.grib2 2026-05-01 02:59 286K
20260501T00Z_MSC_RDPS_WindV_IsbL-0010_RLatLon0.09_PT054H.grib2 2026-05-01 02:59 388K
20260501T00Z_MSC_RDPS_WindV_IsbL-0020_RLatLon0.09_PT054H.grib2 2026-05-01 02:59 314K
20260501T00Z_MSC_RDPS_WindV_IsbL-0030_RLatLon0.09_PT054H.grib2 2026-05-01 02:59 315K
20260501T00Z_MSC_RDPS_WindV_IsbL-0050_RLatLon0.09_PT054H.grib2 2026-05-01 02:59 344K
20260501T00Z_MSC_RDPS_WindV_IsbL-0100_RLatLon0.09_PT054H.grib2 2026-05-01 02:59 334K
20260501T00Z_MSC_RDPS_WindV_IsbL-0150_RLatLon0.09_PT054H.grib2 2026-05-01 02:59 397K
20260501T00Z_MSC_RDPS_WindV_IsbL-0175_RLatLon0.09_PT054H.grib2 2026-05-01 02:59 420K
20260501T00Z_MSC_RDPS_WindV_IsbL-0200_RLatLon0.09_PT054H.grib2 2026-05-01 02:59 337K
20260501T00Z_MSC_RDPS_WindV_IsbL-0225_RLatLon0.09_PT054H.grib2 2026-05-01 02:59 340K
20260501T00Z_MSC_RDPS_WindV_IsbL-0250_RLatLon0.09_PT054H.grib2 2026-05-01 02:59 341K
20260501T00Z_MSC_RDPS_WindV_IsbL-0275_RLatLon0.09_PT054H.grib2 2026-05-01 02:59 358K
20260501T00Z_MSC_RDPS_WindV_IsbL-0300_RLatLon0.09_PT054H.grib2 2026-05-01 02:59 354K
20260501T00Z_MSC_RDPS_WindV_IsbL-0350_RLatLon0.09_PT054H.grib2 2026-05-01 02:59 361K
20260501T00Z_MSC_RDPS_WindV_IsbL-0400_RLatLon0.09_PT054H.grib2 2026-05-01 02:59 363K
20260501T00Z_MSC_RDPS_WindV_IsbL-0450_RLatLon0.09_PT054H.grib2 2026-05-01 02:59 467K
20260501T00Z_MSC_RDPS_WindV_IsbL-0500_RLatLon0.09_PT054H.grib2 2026-05-01 02:59 467K
20260501T00Z_MSC_RDPS_WindV_IsbL-0550_RLatLon0.09_PT054H.grib2 2026-05-01 02:59 470K
20260501T00Z_MSC_RDPS_WindV_IsbL-0600_RLatLon0.09_PT054H.grib2 2026-05-01 02:59 477K
20260501T00Z_MSC_RDPS_WindV_IsbL-0650_RLatLon0.09_PT054H.grib2 2026-05-01 02:59 492K
20260501T00Z_MSC_RDPS_WindV_IsbL-0700_RLatLon0.09_PT054H.grib2 2026-05-01 02:59 513K
20260501T00Z_MSC_RDPS_WindV_IsbL-0750_RLatLon0.09_PT054H.grib2 2026-05-01 02:59 538K
20260501T00Z_MSC_RDPS_WindV_IsbL-0800_RLatLon0.09_PT054H.grib2 2026-05-01 02:59 578K
20260501T00Z_MSC_RDPS_WindV_IsbL-0850_RLatLon0.09_PT054H.grib2 2026-05-01 02:59 629K
20260501T00Z_MSC_RDPS_WindV_IsbL-0875_RLatLon0.09_PT054H.grib2 2026-05-01 02:59 649K
20260501T00Z_MSC_RDPS_WindV_IsbL-0900_RLatLon0.09_PT054H.grib2 2026-05-01 02:59 659K
20260501T00Z_MSC_RDPS_WindV_IsbL-0925_RLatLon0.09_PT054H.grib2 2026-05-01 02:59 660K
20260501T00Z_MSC_RDPS_WindV_IsbL-0950_RLatLon0.09_PT054H.grib2 2026-05-01 02:59 658K
20260501T00Z_MSC_RDPS_WindV_IsbL-0970_RLatLon0.09_PT054H.grib2 2026-05-01 02:59 659K
20260501T00Z_MSC_RDPS_WindV_IsbL-0985_RLatLon0.09_PT054H.grib2 2026-05-01 02:59 651K
20260501T00Z_MSC_RDPS_WindV_IsbL-1000_RLatLon0.09_PT054H.grib2 2026-05-01 02:59 783K
20260501T00Z_MSC_RDPS_WindV_IsbL-1015_RLatLon0.09_PT054H.grib2 2026-05-01 02:59 775K